This is the latest recevied weather packets stored in our database for station/object VANOK. If no packets are shown the sender has not sent any weather packets the latest 10 day(s).
| Time | Temp. | Humidity | Pressure | Rain* | Wind** | Luminosity | Snow |
|---|---|---|---|---|---|---|---|
| 1777997242 | 6.67° C | 57% | 1008.1 hPa | - | - | - | - |
| 1777996043 | 7.22° C | 54% | 1008.1 hPa | - | - | - | - |
| 1777994842 | 7.22° C | 56% | 1008.1 hPa | - | - | - | - |
| 1777993642 | 7.22° C | 59% | 1008 hPa | - | - | - | - |
| 1777992443 | 7.22° C | 65% | 1008 hPa | - | - | - | - |
| 1777991242 | 7.78° C | 65% | 1007.9 hPa | - | - | - | - |
| 1777990041 | 7.22° C | 67% | 1007.8 hPa | - | - | - | - |
| 1777988842 | 7.78° C | 66% | 1007.7 hPa | - | - | - | - |
| 1777987641 | 7.78° C | 69% | 1007.5 hPa | - | - | - | - |
| 1777986442 | 7.22° C | 71% | 1007.4 hPa | - | - | - | - |
| 1777985241 | 7.22° C | 70% | 1007.3 hPa | - | - | - | - |
| 1777984041 | 6.67° C | 71% | 1007.1 hPa | - | - | - | - |
| 1777982841 | 7.22° C | 68% | 1007.1 hPa | - | - | - | - |
| 1777981641 | 6.67° C | 70% | 1007 hPa | - | - | - | - |
| 1777980441 | 7.22° C | 64% | 1006.8 hPa | - | - | - | - |
| 1777979241 | 7.22° C | 65% | 1006.6 hPa | - | - | - | - |
| 1777978041 | 7.22° C | 66% | 1006.4 hPa | - | - | - | - |
| 1777976840 | 6.67° C | 70% | 1006.3 hPa | - | - | - | - |
| 1777975641 | 6.67° C | 69% | 1006 hPa | - | - | - | - |
| 1777974440 | 7.22° C | 71% | 1005.8 hPa | - | - | - | - |
| 1777973240 | 7.22° C | 73% | 1005.5 hPa | - | - | - | - |
| 1777972041 | 6.67° C | 75% | 1005.3 hPa | - | - | - | - |
| 1777970842 | 6.67° C | 76% | 1005.1 hPa | - | - | - | - |
| 1777969641 | 6.67° C | 78% | 1004.7 hPa | - | - | - | - |
| 1777968441 | 6.67° C | 78% | 1004.4 hPa | - | - | - | - |
* Rain since midnight (hover to see other rain measurements)
** Current wind speed in m/s (hover to see current wind gust speed)